Change the Weather History Date:

Sunday, October 21, 2012

  Actual Average Record
Temperature  
Mean Temperature 54 °F -  
Max Temperature 64 °F 61 °F 78 °F (1979)
Min Temperature 43 °F 37 °F 20 °F (1972)
Degree Days  
Heating Degree Days 12    
Growing Degree Days 4 (Base 50)    
Moisture  
Dew Point 39 °F    
Average Humidity 61    
Maximum Humidity 86    
Minimum Humidity 38    
Precipitation  
Precipitation 0.00 in - - ()
Sea Level Pressure  
Sea Level Pressure 29.93 in    
Wind  
Wind Speed 6 mph (West)    
Max Wind Speed 13 mph    
Max Gust Speed 21 mph    
Visibility 10 miles    
Events      
Averages and records for this station are not official NWS values.
T = Trace of Precipitation, MM = Missing Value Source: NWS Daily Summary

Daily Weather History Graph

Daily Weather History Graph

Search for Another Location

Airport or City:

Trip Planner

Search our weather history database for the weather conditions in past years. The results will help you decide how hot, cold, wet, or windy it might be!

Date:

Astronomy

Oct. 21, 2012 Rise Set
Actual Time 7:13 AM EDT 6:03 PM EDT
Civil Twilight 6:44 AM EDT 6:31 PM EDT
Nautical Twilight 6:12 AM EDT 7:03 PM EDT
Astronomical Twilight 5:40 AM EDT 7:35 PM EDT
Moon 1:33 PM EDT (10/21) 11:53 PM EDT (10/21)
Length of Visible Light 11h 46m
Length of Day
10h 50m
Waxing Crescent, 45% of the Moon is Illuminated
Oct 21
Waxing Crescent
Oct 21
First Quarter
Oct 29
Full
Nov 6
Last Quarter
Nov 13
New

Hourly Weather History & Observations

Time (EDT) Temp. Windchill Dew Point Humidity Pressure Visibility Wind Dir Wind Speed Gust Speed Precip Events Conditions
12:53 AM 48.0 °F - 39.0 °F 71% 29.83 in 10.0 mi WSW 3.5 mph - N/A   Clear
1:53 AM 44.1 °F 40.8 °F 39.0 °F 82% 29.83 in 10.0 mi WSW 5.8 mph - N/A   Clear
2:53 AM 43.0 °F 41.3 °F 39.0 °F 86% 29.85 in 10.0 mi SW 3.5 mph - N/A   Clear
3:53 AM 46.9 °F - 39.0 °F 74% 29.86 in 10.0 mi West 6.9 mph - N/A   Clear
4:53 AM 48.0 °F - 39.9 °F 74% 29.88 in 10.0 mi West 5.8 mph - N/A   Clear
5:53 AM 45.0 °F 43.5 °F 39.0 °F 80% 29.89 in 10.0 mi SW 3.5 mph - N/A   Clear
6:53 AM 46.0 °F - 39.9 °F 79% 29.91 in 10.0 mi Calm Calm - N/A   Clear
7:53 AM 46.0 °F - 41.0 °F 83% 29.93 in 10.0 mi Calm Calm - N/A   Clear
8:53 AM 50.0 °F - 42.1 °F 74% 29.94 in 10.0 mi SW 5.8 mph - N/A   Clear
9:53 AM 54.0 °F - 41.0 °F 62% 29.95 in 10.0 mi WSW 8.1 mph - N/A   Clear
10:53 AM 57.0 °F - 39.9 °F 53% 29.96 in 10.0 mi NW 10.4 mph 17.3 mph N/A   Clear
11:53 AM 59.0 °F - 41.0 °F 51% 29.95 in 10.0 mi WNW 9.2 mph - N/A   Clear
12:53 PM 61.0 °F - 42.1 °F 50% 29.94 in 10.0 mi NW 10.4 mph - N/A   Partly Cloudy
1:53 PM 62.1 °F - 39.9 °F 44% 29.93 in 10.0 mi NNW 12.7 mph 19.6 mph N/A   Partly Cloudy
2:53 PM 64.0 °F - 39.0 °F 40% 29.92 in 10.0 mi NW 12.7 mph 20.7 mph N/A   Clear
3:53 PM 63.0 °F - 37.0 °F 38% 29.93 in 10.0 mi WNW 10.4 mph 18.4 mph N/A   Mostly Cloudy
4:53 PM 62.1 °F - 37.0 °F 39% 29.93 in 10.0 mi NNW 9.2 mph - N/A   Partly Cloudy
5:53 PM 60.1 °F - 36.0 °F 41% 29.95 in 10.0 mi West 8.1 mph 18.4 mph N/A   Scattered Clouds
6:53 PM 57.0 °F - 37.0 °F 47% 29.96 in 10.0 mi WSW 4.6 mph - N/A   Mostly Cloudy
7:53 PM 53.1 °F - 39.0 °F 59% 29.97 in 10.0 mi WSW 3.5 mph - N/A   Mostly Cloudy
8:53 PM 53.1 °F - 39.0 °F 59% 29.97 in 10.0 mi WSW 8.1 mph - N/A   Clear
9:53 PM 53.1 °F - 39.0 °F 59% 29.99 in 10.0 mi WSW 9.2 mph - N/A   Clear
10:53 PM 53.1 °F - 37.9 °F 57% 29.99 in 10.0 mi WSW 8.1 mph - N/A   Clear
11:53 PM 54.0 °F - 37.9 °F 55% 29.99 in 10.0 mi West 6.9 mph - N/A   Clear